TimeMDT,TemperatureF,Dew PointF,Humidity,Sea Level PressureIn,VisibilityMPH,Wind Direction,Wind SpeedMPH,Gust SpeedMPH,PrecipitationIn,Events,Conditions,WindDirDegrees,DateUTC
12:15 AM,42.8,30.2,61,29.91,10.0,North,15.0,20.7,N/A,,Clear,350,2014-03-14 06:15:00
12:35 AM,41.0,30.2,65,29.92,10.0,North,13.8,-,N/A,,Clear,360,2014-03-14 06:35:00
12:55 AM,41.0,30.2,65,29.93,10.0,North,12.7,-,N/A,,Clear,350,2014-03-14 06:55:00
1:15 AM,41.0,30.2,65,29.94,10.0,North,10.4,-,N/A,,Clear,350,2014-03-14 07:15:00
1:35 AM,37.4,30.2,75,29.95,10.0,NNW,11.5,-,N/A,,Clear,330,2014-03-14 07:35:00
1:55 AM,35.6,30.2,81,29.96,10.0,NNW,10.4,-,N/A,,Clear,340,2014-03-14 07:55:00
2:15 AM,35.6,30.2,81,29.97,10.0,NNW,8.1,-,N/A,,Clear,340,2014-03-14 08:15:00
2:35 AM,33.8,28.4,81,29.96,10.0,NNW,6.9,-,N/A,,Clear,330,2014-03-14 08:35:00
2:55 AM,35.6,30.2,81,29.96,10.0,NNW,5.8,-,N/A,,Clear,340,2014-03-14 08:55:00
3:15 AM,33.8,30.2,87,29.96,10.0,NNW,9.2,-,N/A,,Clear,340,2014-03-14 09:15:00
3:35 AM,33.8,30.2,87,29.97,10.0,NNW,9.2,-,N/A,,Clear,340,2014-03-14 09:35:00
3:55 AM,33.8,28.4,81,29.97,10.0,NNW,5.8,-,N/A,,Clear,330,2014-03-14 09:55:00
4:15 AM,33.8,28.4,81,29.98,10.0,NNW,3.5,-,N/A,,Clear,330,2014-03-14 10:15:00
4:35 AM,32.0,28.4,87,29.98,10.0,NNW,9.2,-,N/A,,Clear,340,2014-03-14 10:35:00
4:55 AM,32.0,28.4,87,29.98,10.0,North,6.9,-,N/A,,Clear,360,2014-03-14 10:55:00
5:15 AM,32.0,28.4,87,30.00,10.0,Calm,Calm,-,N/A,,Clear,0,2014-03-14 11:15:00
5:35 AM,33.8,28.4,81,30.00,10.0,Calm,Calm,-,N/A,,Clear,0,2014-03-14 11:35:00
5:55 AM,32.0,26.6,80,30.00,10.0,West,4.6,-,N/A,,Clear,280,2014-03-14 11:55:00
6:15 AM,32.0,26.6,80,30.01,10.0,NW,5.8,-,N/A,,Clear,320,2014-03-14 12:15:00
6:35 AM,32.0,28.4,87,30.01,10.0,North,4.6,-,N/A,,Clear,10,2014-03-14 12:35:00
6:55 AM,32.0,26.6,80,30.00,10.0,North,3.5,-,N/A,,Clear,10,2014-03-14 12:55:00
7:15 AM,30.2,26.6,86,30.02,10.0,South,6.9,-,N/A,,Clear,190,2014-03-14 13:15:00
7:35 AM,30.2,26.6,86,30.03,10.0,SW,4.6,-,N/A,,Clear,220,2014-03-14 13:35:00
7:55 AM,32.0,28.4,87,30.03,10.0,West,6.9,-,N/A,,Clear,260,2014-03-14 13:55:00
8:15 AM,35.6,30.2,81,30.04,10.0,West,8.1,-,N/A,,Clear,260,2014-03-14 14:15:00
8:35 AM,37.4,32.0,81,30.04,10.0,West,9.2,-,N/A,,Clear,260,2014-03-14 14:35:00
8:55 AM,41.0,30.2,65,30.04,10.0,West,8.1,-,N/A,,Clear,260,2014-03-14 14:55:00
9:15 AM,42.8,30.2,61,30.04,10.0,West,8.1,-,N/A,,Clear,260,2014-03-14 15:15:00
9:35 AM,44.6,30.2,57,30.04,10.0,West,9.2,-,N/A,,Clear,260,2014-03-14 15:35:00
9:55 AM,46.4,30.2,53,30.04,10.0,WSW,10.4,-,N/A,,Clear,240,2014-03-14 15:55:00
10:15 AM,50.0,30.2,47,30.04,10.0,WSW,10.4,-,N/A,,Clear,250,2014-03-14 16:15:00
10:35 AM,51.8,30.2,44,30.04,10.0,WSW,11.5,-,N/A,,Clear,240,2014-03-14 16:35:00
10:55 AM,51.8,28.4,41,30.03,10.0,SW,10.4,16.1,N/A,,Clear,230,2014-03-14 16:55:00
11:15 AM,53.6,28.4,38,30.02,10.0,WSW,9.2,-,N/A,,Clear,240,2014-03-14 17:15:00
11:35 AM,55.4,28.4,36,30.02,10.0,SW,11.5,-,N/A,,Clear,230,2014-03-14 17:35:00
11:55 AM,57.2,28.4,33,30.01,10.0,WSW,10.4,-,N/A,,Clear,250,2014-03-14 17:55:00
12:15 PM,57.2,26.6,31,30.01,10.0,SW,9.2,-,N/A,,Clear,230,2014-03-14 18:15:00
12:35 PM,59.0,28.4,31,30.00,10.0,WSW,10.4,-,N/A,,Clear,240,2014-03-14 18:35:00
12:55 PM,60.8,26.6,27,29.99,10.0,WSW,11.5,18.4,N/A,,Clear,240,2014-03-14 18:55:00
1:15 PM,60.8,26.6,27,29.97,10.0,SW,13.8,17.3,N/A,,Clear,230,2014-03-14 19:15:00
1:35 PM,60.8,26.6,27,29.97,10.0,SW,11.5,24.2,N/A,,Clear,230,2014-03-14 19:35:00
1:55 PM,62.6,24.8,24,29.95,10.0,SW,9.2,19.6,N/A,,Clear,230,2014-03-14 19:55:00
2:15 PM,62.6,23.0,22,29.93,10.0,WSW,12.7,21.9,N/A,,Clear,250,2014-03-14 20:15:00
2:35 PM,64.4,23.0,21,29.92,10.0,SW,15.0,19.6,N/A,,Clear,230,2014-03-14 20:35:00
2:55 PM,64.4,19.4,18,29.91,10.0,WSW,15.0,21.9,N/A,,Clear,240,2014-03-14 20:55:00
3:15 PM,64.4,19.4,18,29.90,10.0,WSW,9.2,23.0,N/A,,Clear,240,2014-03-14 21:15:00
3:35 PM,64.4,17.6,16,29.89,10.0,WSW,17.3,21.9,N/A,,Clear,240,2014-03-14 21:35:00
3:55 PM,64.4,17.6,16,29.88,10.0,South,9.2,27.6,N/A,,Clear,190,2014-03-14 21:55:00
4:15 PM,66.2,17.6,15,29.88,10.0,WSW,10.4,-,N/A,,Clear,240,2014-03-14 22:15:00
4:35 PM,66.2,14.0,13,29.86,10.0,SW,11.5,17.3,N/A,,Clear,230,2014-03-14 22:35:00
4:55 PM,66.2,10.4,11,29.86,10.0,WSW,9.2,-,N/A,,Clear,250,2014-03-14 22:55:00
5:15 PM,68.0,15.8,13,29.85,10.0,SW,10.4,-,N/A,,Clear,230,2014-03-14 23:15:00
5:35 PM,66.2,19.4,17,29.85,10.0,SW,11.5,17.3,N/A,,Clear,220,2014-03-14 23:35:00
5:55 PM,64.4,19.4,18,29.84,10.0,SSW,11.5,-,N/A,,Clear,210,2014-03-14 23:55:00
6:15 PM,62.6,21.2,20,29.85,10.0,SW,8.1,-,N/A,,Clear,230,2014-03-15 00:15:00
6:35 PM,60.8,23.0,23,29.85,10.0,SW,5.8,-,N/A,,Clear,220,2014-03-15 00:35:00
6:55 PM,57.2,23.0,27,29.85,10.0,SW,4.6,-,N/A,,Clear,230,2014-03-15 00:55:00
7:15 PM,55.4,23.0,29,29.85,10.0,Calm,Calm,-,N/A,,Clear,0,2014-03-15 01:15:00
7:35 PM,53.6,23.0,30,29.85,10.0,Calm,Calm,-,N/A,,Clear,0,2014-03-15 01:35:00
7:55 PM,53.6,23.0,30,29.85,10.0,Calm,Calm,-,N/A,,Clear,0,2014-03-15 01:55:00
8:15 PM,50.0,24.8,37,29.86,10.0,South,6.9,-,N/A,,Clear,170,2014-03-15 02:15:00
8:35 PM,46.4,26.6,46,29.86,10.0,SSW,8.1,-,N/A,,Clear,210,2014-03-15 02:35:00
8:55 PM,46.4,26.6,46,29.86,10.0,South,4.6,-,N/A,,Clear,190,2014-03-15 02:55:00
9:15 PM,42.8,28.4,57,29.86,10.0,South,3.5,-,N/A,,Clear,180,2014-03-15 03:15:00
9:35 PM,44.6,26.6,49,29.86,10.0,South,4.6,-,N/A,,Clear,190,2014-03-15 03:35:00
9:55 PM,44.6,26.6,49,29.86,10.0,SSW,6.9,-,N/A,,Clear,210,2014-03-15 03:55:00
10:15 PM,37.4,28.4,70,29.86,10.0,SW,6.9,-,N/A,,Clear,230,2014-03-15 04:15:00
10:35 PM,39.2,28.4,65,29.86,10.0,SSW,3.5,-,N/A,,Clear,200,2014-03-15 04:35:00
10:55 PM,41.0,28.4,61,29.86,10.0,WSW,4.6,-,N/A,,Clear,240,2014-03-15 04:55:00
11:15 PM,37.4,28.4,70,29.86,10.0,West,4.6,-,N/A,,Clear,280,2014-03-15 05:15:00
11:35 PM,41.0,28.4,61,29.86,10.0,SSE,3.5,-,N/A,,Clear,150,2014-03-15 05:35:00
11:55 PM,42.8,28.4,57,29.85,10.0,SSW,4.6,-,N/A,,Clear,200,2014-03-15 05:55:00